Wind_Speed
43 45 46 48 49 50 51 53 54 55 57 58 60 62 63 63 63 64 64 65 65 65 65 65 65 65 65 66 66 65 65 65 64 64 64 64 64 64
46 46 47 49 50 51 52 54 55 56 57 58 60 61 60 61 61 62 63 63 63 62 61 61 61 61 62 62 62 62 61 60 59 59 58 58 58 59
46 47 48 48 50 51 52 52 53 54 56 57 57 57 57 58 58 58 58 58 57 56 56 55 55 56 56 56 55 55 55 55 54 53 52 52 53 53
46 47 47 48 49 49 50 50 51 52 53 53 53 54 54 54 54 54 53 52 51 50 49 49 49 49 48 48 48 48 47 47 47 47 47 48 48 48
45 46 46 45 45 47 47 48 49 49 49 49 50 50 50 49 48 48 48 46 45 43 42 42 42 41 41 40 40 40 40 41 41 42 42 43 43 44
44 44 44 44 45 45 46 46 46 46 46 45 45 44 43 42 41 40 39 39 38 37 36 35 34 34 34 34 34 35 35 36 37 38 38 38 39 40
41 41 42 42 42 43 43 42 42 41 39 38 37 36 35 34 33 32 31 31 31 31 30 30 29 30 30 30 30 30 31 32 32 33 34 35 36 37
38 38 38 38 38 37 36 35 34 33 31 31 30 29 28 27 27 27 27 26 26 26 26 26 27 27 27 28 28 28 28 28 29 30 32 33 34 34
33 33 32 31 31 30 29 28 28 27 26 26 25 25 25 25 25 25 24 24 23 23 23 24 24 25 25 25 25 25 25 26 27 29 30 30 31 32
29 29 29 29 28 27 26 25 25 24 24 24 23 23 23 23 23 23 22 22 21 21 21 21 22 22 23 22 22 22 23 24 25 26 28 28 29 30
26 27 27 26 25 25 24 23 23 22 22 22 22 21 21 21 21 20 20 19 19 19 19 19 20 20 21 21 21 21 22 23 24 26 26 27 27 27
24 24 24 24 23 22 21 21 20 20 20 20 20 20 20 20 19 19 18 18 18 18 18 19 19 19 19 20 20 21 22 23 24 25 26 25 25 24
21 21 21 20 20 19 19 19 19 19 19 19 19 19 19 18 18 18 17 17 17 17 18 19 19 19 19 19 20 21 23 24 24 25 25 24 23 22
18 18 18 18 18 18 18 18 18 19 18 18 18 18 18 17 17 16 16 16 17 17 18 19 19 20 20 20 20 21 23 24 24 25 25 24 23 22
15 16 16 17 17 16 17 18 18 18 18 17 17 17 16 16 16 16 15 15 16 17 18 19 20 20 20 20 21 22 23 24 24 24 24 23 22 21
14 15 15 16 16 16 17 18 17 17 16 15 15 15 15 15 14 14 14 14 15 16 17 18 19 19 20 21 21 22 24 24 24 24 23 22 22 21
14 14 14 15 15 16 16 17 17 16 15 14 14 14 14 14 13 13 13 14 14 15 16 18 19 19 20 21 21 23 24 25 24 24 23 23 22 21
13 13 13 14 15 15 16 16 15 15 14 14 14 14 13 14 13 13 12 13 14 15 15 17 18 19 20 21 22 23 25 25 25 24 23 22 22 22
12 12 13 14 14 15 15 16 15 14 14 13 13 13 13 13 13 12 12 12 13 14 14 15 17 18 19 21 23 24 24 25 25 25 25 24 23 22
12 12 13 13 14 14 15 15 14 14 13 13 13 13 12 13 12 12 12 12 12 13 14 15 16 17 19 21 22 23 25 25 26 26 26 26 25 24
11 12 12 13 13 14 14 14 14 13 13 13 12 12 12 12 12 11 11 11 11 12 13 14 15 17 19 20 22 23 24 25 26 26 26 27 26 26
11 12 12 13 13 14 14 14 14 13 13 12 12 11 11 11 11 10 10 10 10 11 12 13 15 16 17 19 21 22 24 24 25 26 26 26 26 26
11 12 12 13 13 14 14 14 14 13 13 12 11 11 11 11 10 10 10 10 10 11 12 13 14 15 17 18 20 21 23 24 25 26 27 27 27 27
Wind_Direction
289 289 289 290 288 287 287 287 286 285 284 284 284 283 283 282 281 281 281 281 281 281 281 281 281 281 280 279 278 278 277 277 277 276 276 275 274 273
289 289 290 290 289 288 288 287 286 286 286 286 285 285 284 284 284 284 283 283 283 283 283 283 283 283 282 281 281 280 280 279 279 278 278 277 275 274
289 290 290 290 290 289 289 288 288 287 287 287 287 287 287 287 288 287 286 286 285 286 285 285 284 284 284 283 283 282 281 280 279 278 278 277 276 274
292 292 293 293 294 293 292 291 290 289 289 289 289 289 290 290 289 289 290 289 289 288 288 287 286 286 286 286 285 284 284 283 282 281 280 279 278 276
294 295 295 295 296 296 295 295 294 293 294 294 294 293 293 292 292 291 292 292 292 292 291 290 290 290 290 290 289 287 286 285 284 283 282 281 280 279
296 297 298 298 298 298 298 298 297 297 298 298 298 297 297 296 295 295 295 295 294 294 294 294 294 294 294 294 292 291 290 288 287 286 285 283 282 281
298 299 299 299 299 300 300 301 302 303 304 305 305 305 304 304 302 301 300 300 299 297 297 297 298 298 298 297 296 295 293 293 293 292 291 289 287 284
301 302 302 302 303 305 307 308 309 310 313 314 315 315 314 313 311 308 306 305 304 303 302 302 304 305 305 304 303 302 301 300 299 298 296 294 291 289
304 305 307 308 310 311 313 314 316 318 320 320 320 320 320 318 317 316 314 313 311 310 310 310 311 311 311 311 309 308 307 306 305 304 302 299 296 294
306 308 310 312 313 313 315 317 320 321 322 323 323 324 324 324 324 322 322 321 320 320 319 319 318 318 317 317 317 316 316 315 314 313 311 308 305 301
307 309 311 313 314 315 316 319 322 323 324 324 326 327 328 329 330 330 330 330 330 330 329 329 329 328 326 325 325 325 325 324 323 321 319 316 313 310
309 310 312 313 314 317 319 322 323 325 326 327 329 331 332 333 335 337 337 338 338 338 338 338 337 336 335 334 334 334 333 333 332 330 328 324 321 318
312 313 315 317 320 324 325 326 327 328 330 331 333 334 334 336 338 341 342 344 345 345 345 345 345 345 344 342 340 339 339 338 338 337 335 333 330 326
317 319 321 324 326 329 331 331 332 332 334 335 336 338 339 341 344 345 346 347 348 347 348 350 351 352 351 349 347 346 344 344 343 342 342 341 340 337
322 324 326 328 331 333 335 335 335 336 336 337 339 341 343 344 345 345 346 347 349 350 352 353 354 354 354 354 353 352 351 350 349 349 348 348 349 349
325 327 329 331 333 334 336 337 339 340 341 341 342 342 343 346 347 348 348 348 350 352 354 355 356 357 358 357 357 356 356 356 356 356 358 358 359 0
327 331 334 334 335 336 339 340 341 341 342 344 344 343 344 349 349 349 351 352 353 354 356 359 1 3 4 3 3 3 2 2 3 4 6 7 7 7
331 335 337 337 338 339 340 341 341 342 342 343 344 345 346 349 351 351 352 354 355 356 359 3 6 8 10 9 9 9 9 11 13 14 15 16 16 17
337 338 338 339 340 341 341 341 342 343 343 345 346 348 349 352 354 355 354 356 357 359 3 7 10 12 13 12 14 15 16 17 19 20 22 23 23 23
340 340 342 343 344 344 346 346 347 348 348 348 349 351 352 354 355 356 357 358 1 4 7 11 14 15 16 17 18 20 22 24 25 26 26 27 28 29
344 346 347 348 349 349 348 349 350 350 350 350 351 353 355 356 357 358 0 3 6 8 12 16 18 20 20 21 22 24 26 28 29 29 30 30 31 33
350 351 352 352 351 351 351 350 351 352 353 353 355 356 357 358 0 4 7 12 14 17 20 22 23 24 24 25 26 27 29 30 31 32 33 34 35 37
355 355 355 355 354 353 353 355 356 357 359 358 359 1 2 4 8 14 19 22 24 27 28 27 27 27 28 29 29 31 32 33 34 35 36 37 38 39
Height
5779 5776 5772 5769 5765 5762 5758 5754 5750 5746 5741 5735 5730 5725 5721 5717 5712 5708 5704 5700 5696 5692 5689 5685 5681 5677 5674 5671 5668 5665 5663 5660 5658 5656 5655 5654 5653 5652
5768 5764 5761 5757 5753 5749 5744 5740 5735 5730 5725 5719 5713 5708 5703 5699 5694 5690 5686 5681 5677 5674 5670 5667 5663 5660 5656 5653 5650 5647 5644 5642 5640 5638 5636 5635 5634 5633
5757 5753 5749 5745 5741 5736 5731 5726 5720 5715 5710 5703 5697 5691 5687 5682 5677 5672 5668 5664 5660 5657 5654 5650 5647 5643 5640 5637 5634 5631 5628 5626 5623 5622 5620 5618 5617 5616
5746 5742 5737 5733 5728 5723 5717 5712 5706 5700 5695 5689 5682 5676 5671 5666 5662 5657 5653 5649 5645 5642 5639 5636 5632 5629 5625 5622 5619 5617 5614 5611 5609 5607 5605 5604 5602 5600
5734 5730 5726 5721 5716 5710 5704 5698 5692 5686 5680 5674 5668 5662 5657 5652 5648 5644 5639 5636 5633 5630 5627 5624 5621 5617 5614 5610 5607 5604 5601 5599 5596 5594 5592 5590 5587 5586
5723 5719 5714 5709 5704 5698 5692 5686 5680 5673 5667 5662 5656 5650 5645 5640 5636 5633 5629 5625 5622 5619 5616 5614 5611 5608 5604 5601 5598 5594 5591 5588 5585 5582 5579 5577 5574 5572
5712 5708 5703 5698 5692 5686 5680 5674 5668 5662 5657 5651 5646 5640 5636 5631 5627 5624 5621 5618 5614 5611 5609 5606 5603 5600 5596 5593 5589 5586 5582 5579 5575 5572 5569 5566 5563 5560
5702 5697 5693 5688 5682 5676 5670 5664 5659 5654 5648 5643 5638 5634 5629 5625 5621 5618 5614 5611 5608 5605 5602 5599 5596 5593 5589 5586 5582 5578 5574 5570 5567 5563 5560 5556 5552 5549
5693 5688 5684 5679 5673 5668 5663 5658 5652 5647 5643 5638 5633 5629 5625 5621 5617 5613 5609 5606 5602 5599 5597 5593 5590 5586 5583 5579 5575 5571 5567 5563 5559 5555 5551 5547 5543 5539
5685 5680 5676 5671 5666 5662 5657 5652 5647 5643 5638 5634 5630 5625 5621 5617 5612 5609 5605 5602 5598 5595 5592 5589 5585 5582 5578 5574 5570 5566 5562 5557 5553 5548 5543 5538 5534 5530
5678 5674 5669 5665 5661 5656 5652 5647 5643 5639 5635 5631 5626 5622 5618 5613 5610 5606 5602 5599 5596 5592 5588 5585 5582 5578 5574 5570 5566 5561 5557 5552 5547 5542 5537 5532 5527 5522
5671 5668 5664 5660 5656 5652 5648 5643 5640 5636 5632 5628 5623 5619 5615 5611 5607 5604 5600 5597 5593 5590 5586 5583 5579 5575 5572 5567 5562 5558 5553 5548 5543 5537 5532 5526 5521 5515
5666 5663 5659 5655 5652 5648 5644 5640 5636 5633 5629 5625 5621 5617 5613 5609 5605 5602 5598 5595 5592 5588 5585 5581 5577 5573 5569 5565 5560 5555 5550 5544 5539 5533 5527 5521 5516 5511
5662 5659 5656 5652 5648 5645 5641 5637 5634 5630 5626 5623 5619 5615 5611 5608 5604 5601 5597 5594 5591 5587 5584 5580 5576 5571 5567 5563 5558 5553 5547 5542 5536 5530 5524 5518 5512 5506
5659 5656 5653 5649 5646 5642 5639 5635 5631 5628 5624 5621 5617 5614 5610 5607 5603 5600 5597 5594 5590 5587 5583 5579 5575 5571 5566 5561 5557 5552 5546 5540 5534 5528 5522 5516 5510 5504
5656 5653 5650 5647 5644 5640 5637 5633 5629 5626 5623 5619 5616 5613 5609 5606 5603 5599 5596 5593 5590 5587 5583 5579 5575 5570 5565 5561 5556 5551 5545 5539 5533 5527 5521 5515 5509 5503
5654 5651 5648 5645 5642 5638 5635 5632 5628 5625 5621 5618 5615 5612 5608 5605 5602 5599 5596 5593 5590 5586 5583 5579 5575 5570 5566 5561 5556 5551 5545 5539 5533 5527 5521 5515 5510 5504
5652 5649 5646 5643 5640 5637 5634 5630 5627 5624 5620 5617 5614 5611 5608 5604 5601 5598 5596 5593 5590 5586 5583 5579 5576 5571 5567 5562 5557 5552 5546 5540 5534 5528 5522 5517 5512 5506
5650 5648 5645 5642 5639 5635 5632 5629 5625 5622 5619 5616 5613 5610 5607 5604 5601 5598 5595 5593 5590 5587 5584 5580 5577 5573 5569 5564 5559 5554 5548 5542 5536 5531 5525 5520 5514 5509
5649 5646 5644 5641 5637 5634 5631 5627 5624 5621 5618 5615 5612 5609 5607 5604 5601 5598 5595 5593 5590 5587 5584 5581 5578 5574 5570 5566 5561 5556 5551 5545 5540 5534 5529 5523 5518 5513
5648 5645 5642 5640 5636 5633 5630 5627 5624 5620 5617 5615 5612 5609 5606 5604 5601 5598 5596 5593 5591 5588 5586 5583 5579 5576 5572 5568 5564 5559 5554 5549 5544 5539 5533 5528 5523 5518
5647 5644 5642 5639 5636 5633 5629 5626 5623 5620 5617 5614 5611 5609 5606 5603 5601 5599 5596 5594 5592 5589 5587 5584 5581 5578 5575 5571 5567 5563 5558 5553 5548 5543 5538 5534 5529 5524
5646 5644 5641 5638 5635 5632 5629 5626 5623 5620 5617 5614 5611 5609 5606 5604 5601 5599 5597 5595 5593 5591 5589 5586 5584 5581 5578 5574 5571 5566 5562 5558 5553 5549 5544 5539 5534 5529